Miscellaneous Local Product
Issued by NWS Hastings, NE

Home | Current Version | Previous Version | Text Only | Print | Product List | Glossary Off
Versions: 1 2 3 4 5 6 7 8 9 10 11 12 13 14 15 16 17 18 19 20 21 22 23 24 25 26 27 28 29 30 31 32 33 34 35 36 37 38 39 40 41 42 43 44 45 46 47 48 49 50

000
AXUS43 KGID 031202
MISGRI

GID CWA HOURLY WEATHER ROUNDUP
NATIONAL WEATHER SERVICE HASTINGS NE
600 AM CST TUE MAR 03 2015

NOTE: "FAIR" INDICATES FEW OR NO CLOUDS BELOW 12,000 FEET WITH NO
SIGNIFICANT WEATHER AND/OR OBSTRUCTIONS TO VISIBILITY.

...SOUTH CENTRAL NEBRASKA...

CITY           SKY/WX    TMP DP  RH WIND       PRES   REMARKS
GRAND ISLAND   CLOUDY    29  25  85 CALM      29.63S
HASTINGS       CLOUDY    30  24  78 CALM      29.60F
KEARNEY        CLOUDY    28  21  74 NW7       29.64R WCI  21
ORD            CLOUDY    27  21  78 W8        29.67R WCI  19
YORK           CLOUDY    30  28  93 S3        29.64S FOG
AURORA         CLOUDY    30  28  94 CALM      29.61F FOG
LEXINGTON      CLOUDY    29  24  81 NW7       29.66R WCI  22
HOLDREGE       CLOUDY    29  24  81 NW6       29.62R WCI  23
HEBRON         CLOUDY    35  29  81 SW6       29.64R WCI  30

...NEBRASKA PANHANDLE...

CITY           SKY/WX    TMP DP  RH WIND       PRES   REMARKS
CHADRON        FOG       18  14  84 NE23G31   29.87R VSB 1   WCI   0
ALLIANCE       CLOUDY    21  17  84 N31G43    29.75R WCI   2
SCOTTSBLUFF    CLOUDY    25  19  78 N16       29.80R WCI  12
SIDNEY         CLOUDY    28  25  88 N24G30    29.71R WCI  14

...WESTERN AND NORTH CENTRAL NEBRASKA...

CITY           SKY/WX    TMP DP  RH WIND       PRES   REMARKS
VALENTINE      LGT SNOW  23  18  81 N23G41    29.73R WCI   7
AINSWORTH      CLOUDY    29  26  89 N33G40    29.69R FOG     WCI  12
ONEILL         CLOUDY    28  25  88 SW10      29.67R WCI  19
BROKEN BOW     CLOUDY    28  22  78 NW7       29.65R WCI  21
IMPERIAL         N/A     29  27  92 N12       29.66R FOG     WCI  19
NORTH PLATTE   CLOUDY    28  25  88 W9        29.67R WCI  19
MCCOOK         CLOUDY    29  23  78 NW8       29.66R WCI  21

...EASTERN NEBRASKA...

CITY           SKY/WX    TMP DP  RH WIND       PRES   REMARKS
NORFOLK        CLOUDY    28  27  96 SE3       29.60F FOG
SO SIOUX CITY  CLOUDY    30  25  81 S8        29.68S WCI  22
TEKAMAH        CLOUDY    31  28  89 S7        29.68S FOG     WCI  24
COLUMBUS       CLOUDY    30  21  69 SW3       29.65F
ALBION         CLOUDY    29  23  78 S5        29.59F WCI  24
OMAHA EPPLEY   FRZ DRZL  31  29  92 S10       29.67S FOG     WCI  22
OFFUTT AFB     FRZ DRZL  31  30  95 SE6       29.65F FOG     WCI  26
MILLARD        CLOUDY    32  30  93 SE5       29.67S FOG     WCI  27
LINCOLN        FOG       32  32 100 S3        29.66S VSB 1/2
NEBRASKA CITY  CLOUDY    33  33 100 S10       29.67F FOG     WCI  25
BEATRICE       CLOUDY    33  33  96 S10       29.65F FOG     WCI  25
FALLS CITY     CLOUDY    35  33  92 S12       29.69F FOG     WCI  27

...NORTHERN KANSAS...

CITY           SKY/WX    TMP DP  RH WIND       PRES   REMARKS
GOODLAND       CLOUDY    30  28  92 NW14G21   29.64R WCI  19
HILL CITY      CLOUDY    31  28  89 NW14      29.63R WCI  21
PHILLIPSBURG   MOCLDY    32  28  86 W5        29.62R WCI  27
SMITH CENTER   CLOUDY    30  27  86 N3        29.62R
BELOIT         CLEAR     34  30  86 S7        29.63R WCI  28
HAYS           MOCLDY    37  27  65 SW7       29.61F WCI  32
RUSSELL        MOCLDY    36  32  85 S12       29.60F WCI  28
CONCORDIA      MOCLDY    34  31  88 SW10      29.63S WCI  26
SALINA         PTCLDY    39  32  76 SW18      29.68R WCI  30
TOPEKA         CLOUDY    38  35  89 SW10      29.74R WCI  31



USA.gov is the U.S. government's official web portal to all federal, state and local government web resources and services.